TimeCST,TemperatureF,Dew PointF,Humidity,Sea Level PressureIn,VisibilityMPH,Wind Direction,Wind SpeedMPH,Gust SpeedMPH,PrecipitationIn,Events,Conditions,WindDirDegrees,DateUTC
12:56 AM,28.0,24.1,85,30.33,9.0,South,8.1,-,N/A,,Clear,190,2012-11-29 06:56:00
1:56 AM,29.1,25.2,85,30.33,9.0,South,10.4,-,N/A,,Clear,190,2012-11-29 07:56:00
2:56 AM,28.0,24.1,85,30.33,9.0,South,10.4,-,N/A,,Clear,190,2012-11-29 08:56:00
3:56 AM,27.1,23.0,84,30.31,9.0,South,10.4,-,N/A,,Clear,180,2012-11-29 09:56:00
4:56 AM,27.1,23.0,84,30.32,10.0,South,8.1,-,N/A,,Clear,180,2012-11-29 10:56:00
5:56 AM,27.1,23.0,84,30.32,9.0,South,10.4,-,N/A,,Clear,190,2012-11-29 11:56:00
6:56 AM,28.0,25.2,89,30.30,8.0,South,10.4,-,N/A,,Clear,190,2012-11-29 12:56:00
7:56 AM,31.1,27.1,85,30.30,7.0,South,13.8,-,N/A,,Clear,180,2012-11-29 13:56:00
8:56 AM,36.0,30.0,79,30.29,8.0,SSW,16.1,-,N/A,,Clear,200,2012-11-29 14:56:00
9:56 AM,41.0,32.0,70,30.28,10.0,SSW,15.0,-,N/A,,Clear,200,2012-11-29 15:56:00
10:56 AM,45.0,32.0,60,30.25,10.0,SSW,16.1,-,N/A,,Clear,200,2012-11-29 16:56:00
11:56 AM,46.9,32.9,58,30.21,10.0,SSW,12.7,-,N/A,,Clear,210,2012-11-29 17:56:00
12:56 PM,50.9,34.0,52,30.18,10.0,South,15.0,-,N/A,,Clear,190,2012-11-29 18:56:00
1:56 PM,50.9,34.0,52,30.15,10.0,South,15.0,-,N/A,,Clear,190,2012-11-29 19:56:00
2:56 PM,50.0,34.0,54,30.13,10.0,South,13.8,-,N/A,,Clear,180,2012-11-29 20:56:00
3:56 PM,47.8,32.9,56,30.12,10.0,South,15.0,-,N/A,,Clear,180,2012-11-29 21:56:00
4:56 PM,45.0,32.9,63,30.12,10.0,South,16.1,-,N/A,,Clear,180,2012-11-29 22:56:00
5:56 PM,41.9,32.9,70,30.14,10.0,South,10.4,-,N/A,,Clear,180,2012-11-29 23:56:00
6:56 PM,41.0,32.9,73,30.14,10.0,South,10.4,-,N/A,,Clear,180,2012-11-30 00:56:00
7:56 PM,39.9,32.0,73,30.14,10.0,South,9.2,-,N/A,,Clear,190,2012-11-30 01:56:00
8:56 PM,38.8,31.1,74,30.13,10.0,South,11.5,-,N/A,,Clear,180,2012-11-30 02:56:00
9:56 PM,37.9,30.0,73,30.12,10.0,South,11.5,-,N/A,,Clear,180,2012-11-30 03:56:00
10:56 PM,36.0,30.0,79,30.12,10.0,South,9.2,-,N/A,,Clear,180,2012-11-30 04:56:00
11:56 PM,36.9,31.1,80,30.12,10.0,SSW,10.4,-,N/A,,Scattered Clouds,200,2012-11-30 05:56:00